World > North America > United States > New York

Hourly Pleasantdale, NY Regional Weather

Feedback E-mail the Weather

Latest News

Pleasantdale, NY Weather Maps

°F °C°F °C
Pleasantdale Weather Map
UTC Time: 5/28/2022, 09:44
Your Time:

Pleasantdale, NY Regional Weather

Expires:202205281000;;694441
ASUS41 KALY 280910
RWRALY

NEW YORK STATE HOURLY WEATHER ROUNDUP
NATIONAL WEATHER SERVICE ALBANY NY
500 AM EDT SAT MAY 28 2022

NOTE: "FAIR" INDICATES FEW OR NO CLOUDS BELOW 12,000 FEET WITH NO
SIGNIFICANT WEATHER AND/OR NO OBSTRUCTIONS TO VISIBILITY.


NYZ032-033-038>043-046>054-057>066-NYZ062>081-082-084-281000-
EAST

  
CITY           SKY/WX    TMP DP  RH WIND       PRES   REMARKS
ALBANY         CLOUDY    66  64  93 S5        29.67F                  
GLENS FALLS    CLOUDY    64  63  96 S5        29.67S                  
POUGHKEEPSIE   CLOUDY    66  64  93 CALM      29.67F                  
NEWBURGH       CLOUDY    64  64 100 CALM      29.69F FOG              
MONTGOMERY     CLOUDY    64  63  96 CALM      29.68F                  
WHITE PLAINS   MOCLDY    65  63  93 VRB6      29.69S                  
ISLIP          FOG       63  63 100 SW10      29.70F VSB 3/4          
NEW YORK CITY  CLOUDY    68  64  87 SW7       29.69S                  
CENTRAL PARK   CLOUDY    66  64  93 VRB5      29.72S                  
$$


SKY/WX - Weather  TMP - Temperature  DP - Dew Point  RH - Humidity
WIND - Wind Direction/Speed PRES - Barometric Pressure VSB - Visibility
WCI - Wind Chill Index E13G22 Wind - East Wind 13 mph/Gusts of 22 mph

Trending Headlines

Pleasantdale Radar Loop



Pleasantdale Quick Facts


National Two Day Weather Forecast


E-mail the Pleasantdale Weather Forecast

Voice your opinion or tell us about page issues...